Torna al catalogo

STARLINK-36447

AttivoComunicazioniVLEO
NORAD 67425·PAYLOAD·🇺🇸 United States

Lanciato Jan 12, 2026 da Cape Canaveral Space Force Station

Loading…

Prossimi Passaggi (prossime 24 ore)

TLE

AggiornatoSource: CelesTrak SupGP

Epoca: Sep 14, 2026, 21:32 UTC

1 67425C 26005X   26257.89770833  .00040064  00000+0  14515-2 0  2572
2 67425  43.0022 249.3670 0001320 263.1445 116.3910 15.27550994    18

Traccia STARLINK-36447 in tempo reale con AllMySat

Download on the App Store